Lid_Strength_Index
-0 -1 -1 -1 -1 -0 -0 -1 -1 0 6 8 5 5 4 5 4 4 5 6 6 8 8 10 9 10 12 12
-0 -1 -1 -0 -0 -0 -0 -1 -1 4 8 4 6 5 5 5 4 5 5 5 6 7 8 9 10 12 13 15
0 -0 -0 -0 -0 -0 -1 -1 4 7 9 3 7 5 5 6 5 5 5 4 6 8 9 12 13 13 16 14
1 0 0 0 0 1 1 2 3 10 9 8 7 6 6 5 6 7 7 8 9 11 12 13 16 16 16 15
0 1 3 5 7 8 6 9 9 10 8 8 7 8 6 7 7 9 13 11 12 14 13 12 12 14 15 15
2 2 5 7 7 7 9 6 6 6 6 7 9 9 7 10 10 13 12 13 14 11 11 11 12 13 15 15
2 5 6 6 5 5 10 8 6 7 7 7 9 10 7 10 12 13 13 14 12 10 10 12 13 14 15 15
3 4 6 5 5 6 15 12 9 8 8 8 10 7 7 9 12 13 13 13 11 11 12 13 13 15 13 13
4 6 5 4 5 9 20 11 10 7 9 9 10 10 8 9 12 12 13 14 13 13 13 12 12 13 12 13
4 4 3 4 7 15 20 13 11 12 12 10 11 10 10 9 10 12 13 13 11 11 12 12 12 11 13 13
4 2 3 8 16 18 12 13 13 12 13 13 12 12 13 14 14 17 17 14 13 12 11 13 12 13 16 19
2 2 7 12 19 14 14 11 11 12 14 13 13 13 14 15 14 15 16 17 17 13 12 13 15 15 16 19
3 4 10 16 17 14 11 12 12 15 15 12 14 15 15 15 14 13 16 17 16 13 13 13 13 15 16 15
3 5 11 14 13 11 10 11 15 14 16 14 14 15 15 13 13 12 13 15 17 14 13 13 13 14 13 17
5 7 13 15 12 10 10 12 13 14 14 14 14 15 14 12 12 12 12 14 15 17 15 15 15 15 16 16
9 9 11 12 9 9 8 10 11 12 13 13 14 15 14 12 11 12 14 13 16 18 16 14 14 15 15 15
12 13 10 10 9 9 9 10 11 11 11 13 15 13 13 10 10 11 13 13 16 18 17 16 15 16 15 14